Voltar ao catálogo

COSMOS 1867 COOLANT

AtivoLEO
NORAD 39665·DEBRIS·🇷🇺 Russia

Lançado Jul 10, 1987 de Baikonur Cosmodrome

Loading…

Próximas Passagens (próximas 24 horas)

TLE

EnvelhecendoSource: Space-Track

Época: Sep 12, 2026, 15:24 UTC

1 39665U 87060AC  26255.64192244  .00000134  00000-0  83927-4 0  9993
2 39665  65.0050 124.6778 0018303 282.5111  77.3927 14.33853314639825

Acompanhe COSMOS 1867 COOLANT em tempo real com AllMySat

Download on the App Store